Regional Weather Roundup
Issued by NWS

Home | Current Version | Previous Version | Graphics & Text | Print | Product List | Glossary On
Versions: 1 2 3 4 5 6 7 8 9 10 11 12 13 14 15 16 17 18 19 20 21 22 23 24 25 26 27 28 29 30 31 32 33 34 35 36 37 38 39 40 41 42 43 44 45 46 47 48 49 50
000
ASUS45 KCYS 290610
RWRWY

WYOMING REGIONAL WEATHER ROUNDUP
NATIONAL WEATHER SERVICE CHEYENNE WY
1100 PM MST FRI NOV 28 2014

NOTE:  "FAIR" INDICATES FEW OR NO CLOUDS BELOW 12,000 FEET
WITH NO SIGNIFICANT WEATHER AND/OR OBSTRUCTIONS TO VISIBILITY.

WYZ001-290700-
YELLOWSTONE NATIONAL PARK

CITY           SKY/WX    TMP DP  RH WIND       PRES   REMARKS
LK YELLOWSTONE   N/A     36  11  35 VRB5      29.66F WCI  32
6HR MIN TEMP:  35; 6HR MAX TEMP:  38;

W YELLOWSTONE  NOT AVBL

$$
WYZ002>013-054>058-071-098>099-290700-
NORTHERN WYOMING

CITY           SKY/WX    TMP DP  RH WIND       PRES   REMARKS
JACKSON        MOCLDY    39  19  45 S15       29.68S WCI  31
CODY           MOCLDY    50  12  22 SW17G24   29.52F
GREYBULL       PTCLDY    38  22  52 SE8       29.54F WCI  32
6HR MIN TEMP:  31; 6HR MAX TEMP:  45;

WORLAND        CLEAR     40  19  43 E7        29.54F
6HR MIN TEMP:  39; 6HR MAX TEMP:  47;

SHERIDAN       PTCLDY    57  15  19 W30G51    29.39S
6HR MIN TEMP:  53; 6HR MAX TEMP:  62;

BUFFALO        PTCLDY    54  13  19 W32G53    29.48S
6HR MIN TEMP:  48; 6HR MAX TEMP:  55;

GILLETTE       CLEAR     47  21  35 SW18      29.50S
6HR MIN TEMP:  47; 6HR MAX TEMP:  52;

HULETT           N/A    N/A N/A N/A MISG        N/A
NEWCASTLE      FAIR      46  19  34 CALM      29.58S

$$
WYZ014>020-022>026-101>103-290700-
CENTRAL WYOMING

CITY           SKY/WX    TMP DP  RH WIND       PRES   REMARKS
BIG PINEY      PTCLDY    30  16  56 W13       29.77F WCI  20
6HR MIN TEMP:  28; 6HR MAX TEMP:  44;

PINEDALE       PTCLDY    36  14  41 SW14G20   29.75F WCI  27
DUBOIS         MOCLDY    39  12  33 NW16G23   29.65F WCI  30
LANDER         PTCLDY    54   9  16 SW30G41   29.62S
6HR MIN TEMP:  53; 6HR MAX TEMP:  56;

RIVERTON       PTCLDY    48  13  24 W13       29.66S
6HR MIN TEMP:  44; 6HR MAX TEMP:  53;

CASPER         PTCLDY    42  16  34 SW18      29.67F
6HR MIN TEMP:  38; 6HR MAX TEMP:  52;

DOUGLAS        PTCLDY    54  13  19 W25G33    29.62F
6HR MIN TEMP:  48; 6HR MAX TEMP:  56;


$$
WYZ021-027>030-104>119-290700-
SOUTHERN WYOMING

CITY           SKY/WX    TMP DP  RH WIND       PRES   REMARKS
EVANSTON       PTCLDY    40  17  39 SW16      29.82F WCI  31
6HR MIN TEMP:  36; 6HR MAX TEMP:  44;

FORT BRIDGER   FAIR      43  14  30 SW16      29.84F
ROCK SPRINGS   CLEAR     42  11  28 SW17      29.80F
6HR MIN TEMP:  36; 6HR MAX TEMP:  48;

DIXON          FAIR      38  18  43 W5        29.91F WCI  35
RAWLINS        CLEAR     44  14  29 SW16G31   29.80F
6HR MIN TEMP:  41; 6HR MAX TEMP:  48;

SARATOGA       FAIR      41  14  33 SW20G25   29.84F
LARAMIE        CLEAR     40  13  33 SW18      29.82F WCI  31
6HR MIN TEMP:  35; 6HR MAX TEMP:  47;

CHEYENNE       MOCLDY    46  12  25 SW6       29.76F
6HR MIN TEMP:  43; 6HR MAX TEMP:  53;

TORRINGTON     MOCLDY    50  16  25 SW12      29.64F
6HR MIN TEMP:  46; 6HR MAX TEMP:  58;

PINE BLUFFS    FAIR      34  19  55 CALM      29.74F

$$



USA.gov is the U.S. government's official web portal to all federal, state and local government web resources and services.